Regional Weather Roundup
Issued by NWS Kansas City/Pleasant Hill, MO

Home | Current Version | Previous Version | Text Only | Print | Product List | Glossary On
Versions: 1 2 3 4 5 6 7 8 9 10 11 12 13 14 15 16 17 18 19 20 21 22 23 24 25 26 27 28 29 30 31 32 33 34 35 36 37 38 39 40 41 42 43 44 45 46 47 48 49 50
918
ASUS43 KEAX 221510
RWREAX

WEATHER ROUNDUP FOR EASTERN KANSAS AND NORTHWEST MISSOURI
NATIONAL WEATHER SERVICE KANSAS CITY/PLEASANT HILL MO
1000 AM CDT SUN APR 22 2018

KSZ040-057-103>105-MOZ028-029-037-043-221600-
...KANSAS CITY METROPOLITAN AREA...

CITY           SKY/WX    TMP DP  RH WIND       PRES   REMARKS
K.C. INTL      LGT RAIN  48  39  71 NE13      30.14S
K.C. DOWNTOWN  LGT RAIN  50  40  68 NE10      30.13S
LEES SUMMIT    LGT RAIN  46  43  89 NE15      30.12S FOG
OLATHE - IXD   LGT RAIN  48  44  86 NE12G21   30.12R
OLATHE - OJC   LGT RAIN  45  43  93 NE14      30.11R FOG
LAWRENCE       CLOUDY    50  40  68 NE14      30.13S

$$

MOZ001>008-011>017-020>025-030>033-038>040-044>046-053-054-221600-
...NORTHERN AND CENTRAL MISSOURI...

CITY           SKY/WX    TMP DP  RH WIND       PRES   REMARKS
ST. JOSEPH     CLOUDY    52  34  50 E12       30.17S
MOSBY          LGT RAIN  46  39  76 NE5       30.15S
WARRENSBURG    RAIN      45  43  93 NE12G17   30.11S
WHITEMAN AFB   LGT RAIN  47  45  92 NE12      30.07R
CLINTON        RAIN      48  48 100 NE14      30.07S
SEDALIA        LGT RAIN  49  47  93 NE13      30.11F
WARSAW         NOT AVBL
CHILLICOTHE      N/A     53  33  46 E8        30.19R
KIRKSVILLE     CLOUDY    51  33  50 E10       30.20S

$$

MOZ041-047>049-056>058-063>065-088>090-097-221600-
...EASTERN AND SOUTHERN MISSOURI...

CITY           SKY/WX    TMP DP  RH WIND       PRES   REMARKS
ST. LOUIS INTL CLOUDY    59  45  59 E13       30.14F
SPIRIT OF STL  CLOUDY    57  46  66 NE10      30.13F
COLUMBIA       CLOUDY    53  42  66 E13       30.11F
JEFFERSON CITY CLOUDY    52  48  86 E9        30.11S
ROLLA          LGT RAIN  51  48  89 E14       30.08S
OSAGE BEACH    RAIN      52  51  97 NE12      30.06F FOG
SPRINGFIELD    LGT RAIN  53  52  96 NE12      29.96S
BRANSON        LGT RAIN  52  52 100 N9        29.94F
JOPLIN         CLOUDY    51  51 100 NE6       29.98S
WEST PLAINS    LGT RAIN  53  51  93 E10G21    30.00F FOG

$$

IAZ060-094-KSZ022-034>040-054-083-096-NEZ052-066-093-221600-
...KANSAS...SOUTHEAST NEBRASKA AND IOWA...

CITY           SKY/WX    TMP DP  RH WIND       PRES   REMARKS
TOPEKA         CLOUDY    51  41  68 NE8       30.13S
MANHATTAN      MOSUNNY   53  38  56 NE13      30.16R
EMPORIA        CLOUDY    48  42  80 N13       30.10R
CHANUTE        LGT RAIN  49  47  93 N9        30.05S
WICHITA        CLOUDY    49  43  80 N20       30.12R
OMAHA          CLOUDY    57  32  38 E7        30.22F
LINCOLN        CLOUDY    49  34  56 N14       30.23F
FALLS CITY     CLOUDY    53  33  46 NE14G23   30.17S
LAMONI         CLOUDY    52  31  44 E13       30.20S
DES MOINES     CLOUDY    51  30  44 E10       30.26S

$$





USA.gov is the U.S. government's official web portal to all federal, state and local government web resources and services.